SCP
0 0 0 0 0 0 0 0 0 0 0 0 0 0 0 0 0 0 0 0 0 0 0 0 0 0 0 0 0 0 0 0 0 0 0 0 0 0 0 0 0 0 0
0 0 0 0 0 0 0 0 0 0 0 0 0 0 0 0 0 0 0 0 0 0 0 0 0 0 0 0 0 0 0 0 0 0 0 0 0 0 0 0 0 0 0
0 0 0 0 0 0 0 0 0 0 0 0 0 0 0 0 0 0 0 0 0 0 0 0 0 0 0 0 0 0 0 0 0 0 0 0 0 0 0 0 0 0 0
0 0 0 0 0 0 0 0 0 0 0 0 0 0 0 0 0 0 0 0 0 0 0 0 0 0 0 0 0 0 0 0 0 0 0 0 0 0 0 0 0 0 0
0 0 0 0 0 0 0 0 0 0 0 0 0 0 0 0 0 0 0 0 0 0 0 0 0 0 0 0 0 0 0 0 0 0 0 0 0 0 0 0 0 0 0
0 0 0 0 0 0 0 0 0 0 0 0 0 0 0 0 0 0 0 0 0 0 0 0 0 0 0 0 0 0 0 0 0 0 0 0 0 0 0 0 0 0 0
0 0 0 0 0 0 0 0 0 0 0 0 0 0 0 0 0 0 0 0 0 0 0 0 0 0 0 0 0 0 0 0 0 0 0 0 0 0 0 0 0 0 0
0 0 0 0 0 0 0 0 0 0 0 0 0 0 0 0 0 0 0 0 0 0 0 0 0 0 0 0 0 0 0 0 0 0 0 0 0 0 0 0 0 0 0
0 0 0 0 0 0 0 0 0 0 0 0 0 0 0 0 0 0 0 0 0 0 0 0 0 0 0 0 0 0 0 0 0 0 0 0 0 0 0 0 0 0 0
0 0 0 0 0 0 0 0 0 0 0 0 0 0 0 0 0 0 0 0 0 0 0 0 0 0 0 0 0 0 0 0 0 0 0 0 0 0 0 0 0 0 0
0 0 0 0 0 0 0 0 0 0 0 0 0 0 0 0 0 0 0 0 0 0 0 0 0 0 0 0 0 0 0 0 0 0 0 0 0 0 0 0 0 0 0
0 0 0 0 0 0 0 0 0 0 0 0 0 0 0 0 0 0 0 0 0 -0 -0 -0 -0 -0 0 0 0 0 0 0 0 0 0 0 0 0 0 0 0 0 0
0 0 0 0 0 0 0 0 0 0 0 0 0 0 0 0 0 0 0 0 0 -0 -0 -0 -0 -0 -0 0 0 0 0 0 0 0 0 0 0 0 0 0 0 0 0
0 0 0 0 0 0 0 0 0 0 0 0 0 0 0 0 0 0 0 0 0 -0 -0 -0 -0 -0 -0 -0 0 0 0 0 0 0 0 0 0 0 0 0 0 0 0
0 0 0 0 0 0 0 0 0 0 0 0 0 0 0 0 0 0 0 0 0 0 0 0 0 -0 -0 -0 -0 -0 0 0 0 0 0 0 0 0 0 0 0 0 0
0 0 0 0 0 0 0 0 0 0 0 0 0 0 0 0 0 0 0 0 0 0 0 0 0 0 -0 -0 -0 -0 -0 0 0 0 0 0 0 0 0 0 0 0 0
0 0 0 0 0 0 0 0 0 0 0 0 0 0 0 0 0 0 0 0 0 0 0 0 0 0 0 -0 -0 -0 -0 -0 0 0 0 0 0 0 0 0 0 0 0
0 0 0 0 0 0 0 0 0 0 0 0 0 0 0 0 0 0 0 0 0 0 0 0 0 0 0 -0 -0 -0 -0 -0 -0 0 0 0 0 0 0 0 0 0 0
0 0 0 0 0 0 0 0 0 0 0 0 0 0 0 0 0 0 0 0 0 0 0 0 0 0 -0 -0 -0 -0 -0 -0 -0 0 0 0 0 0 0 0 0 0 0
0 0 0 0 0 0 0 0 0 0 0 0 0 0 0 0 0 0 0 0 0 0 0 0 0 0 -0 -0 -0 -0 -0 -0 -0 -0 0 0 0 0 0 0 0 0 0
0 0 0 0 0 0 0 0 0 0 0 0 0 0 0 0 0 0 0 0 0 0 0 0 0 0 0 -0 -0 -0 -0 -0 -0 -0 -0 0 0 0 0 0 0 0 0
0 0 0 0 0 0 0 0 0 0 0 0 0 0 0 0 0 0 0 0 0 0 0 0 0 0 0 0 -0 0 0 0 -0 -0 -0 -0 0 0 0 0 0 0 0
0 0 0 0 0 0 0 0 0 0 0 0 0 0 0 0 0 0 0 0 0 0 0 0 0 0 0 0 0 0 0 0 -0 -0 -0 -0 -0 0 0 0 0 0 0
0 0 0 0 0 0 0 0 0 0 0 0 0 0 0 0 0 0 0 0 0 0 0 0 0 0 0 0 0 0 -0 0 0 -0 -0 -0 -0 -0 0 0 0 0 0
0 0 0 0 0 0 0 0 0 0 0 0 0 0 0 0 0 0 0 0 0 0 0 0 0 0 0 0 0 0 -0 -0 0 -0 -0 -0 -0 -0 -0 0 0 0 0
0 0 0 0 0 0 0 0 0 0 0 0 0 0 0 0 0 0 0 0 0 0 0 0 0 0 0 0 0 0 -0 -0 -0 -0 -0 -0 -0 -0 -0 0 0 0 0
Wind_Speed
2 1 2 2 2 2 2 2 3 3 4 3 3 3 3 2 2 1 1 3 3 4 4 5 5 6 6 6 6 6 5 6 7 7 7 6 7 7 7 7 7 7 7
2 2 2 1 2 2 2 2 2 2 2 2 3 3 2 2 2 2 1 2 3 3 4 4 4 5 5 5 5 5 4 5 5 6 6 6 6 6 6 6 6 6 6
2 2 2 1 1 2 2 2 2 2 2 2 3 2 2 2 1 1 1 1 1 2 3 3 3 3 4 4 4 4 4 4 4 5 5 5 4 5 5 5 5 5 5
2 2 2 1 1 2 2 2 2 2 2 2 2 1 1 1 1 1 1 1 1 1 1 2 2 2 2 3 3 3 4 4 4 4 4 4 3 4 4 4 4 4 4
2 2 2 1 2 2 2 2 2 2 2 2 1 1 1 1 1 1 1 1 1 1 1 1 2 1 1 2 2 2 3 4 4 3 3 3 3 3 4 4 4 3 3
2 2 2 2 2 2 2 2 2 2 2 1 1 2 1 1 1 1 1 1 1 1 1 1 1 1 1 1 2 2 3 3 3 3 3 3 2 2 3 4 4 3 3
2 2 1 2 2 2 2 2 2 2 2 1 2 1 1 1 1 1 1 1 1 1 1 1 1 1 1 1 1 2 3 3 4 4 4 4 3 2 2 3 4 3 3
3 3 2 2 2 2 3 2 2 2 1 1 1 1 1 2 1 1 1 0 0 1 1 1 0 0 1 1 2 2 3 4 4 5 5 5 5 5 4 4 4 4 4
3 3 3 2 2 3 3 3 3 3 3 1 1 2 2 2 1 1 1 0 1 1 1 1 1 1 1 1 2 2 3 4 5 6 7 7 7 6 6 5 6 6 5
3 3 3 3 3 3 3 3 3 2 3 3 1 0 0 1 2 1 2 1 1 1 1 1 1 1 1 1 2 3 3 4 6 6 7 7 8 8 8 8 7 8 6
2 2 3 3 3 3 3 3 3 3 2 3 3 1 1 0 0 2 2 1 1 1 1 1 1 1 1 1 1 3 4 4 5 5 6 6 7 7 7 8 7 7 7
2 2 3 3 3 3 4 4 4 4 3 2 2 2 2 2 2 2 2 2 2 2 1 1 1 1 1 1 2 4 5 5 5 5 6 6 7 7 7 7 7 7 7
2 3 3 3 3 3 3 4 4 4 4 4 3 3 2 2 2 2 2 1 2 2 1 1 1 1 1 1 1 4 5 5 6 6 7 7 7 7 7 6 7 7 8
3 3 4 4 3 3 3 3 3 3 3 4 3 3 2 2 2 2 2 2 1 2 2 3 1 1 1 1 3 4 3 5 6 7 7 7 6 6 7 7 7 7 7
2 3 4 4 4 4 4 4 3 4 3 4 3 3 3 2 2 2 1 2 3 3 4 3 2 2 2 2 3 2 3 5 7 7 7 7 6 6 6 7 7 6 7
3 3 4 4 4 4 4 4 3 3 4 4 3 3 3 3 2 2 2 2 3 3 4 3 3 2 2 3 4 3 3 6 7 8 8 7 7 6 6 6 6 7 7
2 3 4 4 4 5 5 5 4 4 5 4 4 4 4 4 3 3 3 2 3 2 4 3 2 1 2 3 3 3 3 3 4 8 9 8 8 7 6 6 6 5 5
3 3 3 3 4 5 5 5 5 5 6 6 5 5 5 3 4 4 3 4 4 3 4 5 3 2 3 3 2 3 3 3 3 7 8 9 8 8 7 6 6 6 6
3 3 3 3 5 5 5 5 6 6 6 6 6 6 5 5 5 4 5 5 4 3 3 4 3 2 2 2 2 2 3 3 3 5 7 8 8 8 8 7 6 6 6
2 3 3 3 4 4 5 5 5 5 5 6 6 6 6 6 7 6 5 6 4 4 3 3 3 2 2 2 1 2 3 3 3 4 5 6 7 8 9 8 7 6 7
2 3 2 3 3 3 4 5 5 5 5 5 5 5 5 6 8 6 5 5 5 5 4 4 3 3 2 2 3 2 4 3 3 2 3 3 4 4 4 7 7 7 7
2 2 2 2 3 3 5 6 5 5 5 5 5 4 4 5 6 7 7 6 6 7 6 5 4 5 5 4 3 3 3 3 3 2 3 4 3 4 3 3 7 8 8
2 2 2 2 3 4 5 6 6 4 4 4 4 4 3 3 5 4 5 6 6 8 9 7 6 6 5 5 4 4 4 4 4 2 2 4 3 5 4 5 9 9 8
2 2 2 2 2 4 5 4 4 3 3 4 4 4 4 4 4 4 4 4 5 6 7 6 6 6 6 5 6 5 5 4 3 2 2 4 3 4 4 4 8 9 9
2 2 2 2 2 4 4 4 2 2 2 3 3 4 4 4 5 5 4 4 4 4 6 7 8 7 6 5 4 2 2 2 4 3 2 3 2 3 3 4 5 8 9
2 3 3 2 2 3 4 4 3 2 2 2 2 3 5 5 6 6 5 5 5 5 3 4 5 6 4 4 6 5 4 4 2 3 2 2 2 2 3 2 2 3 5
Wind_Direction
90 78 89 76 74 73 78 80 79 81 78 73 73 80 75 65 52 41 33 44 70 96 111 111 120 124 118 113 110 106 111 114 117 113 109 112 109 107 106 105 106 102 97
115 94 92 89 83 85 85 87 86 89 84 82 77 75 74 64 61 55 39 35 56 89 110 117 113 129 128 125 120 118 113 122 122 122 119 115 117 112 112 110 107 109 104
126 119 112 105 89 88 92 86 76 74 76 72 68 60 58 52 44 40 33 26 36 73 105 119 115 123 137 133 136 134 131 137 140 135 132 123 129 131 125 122 121 116 114
123 122 116 114 88 95 100 101 97 79 71 72 64 38 35 38 28 18 38 49 37 39 85 103 117 112 152 155 159 163 158 151 155 150 141 136 131 147 147 139 137 138 137
130 130 124 120 110 99 101 114 89 91 96 82 69 38 24 26 16 14 28 54 56 54 49 54 68 75 178 182 184 184 174 164 166 161 158 160 161 170 175 166 166 162 158
141 133 129 127 127 115 105 117 113 87 101 105 73 37 6 351 17 38 7 23 43 48 54 53 47 5 3 191 221 220 209 193 189 181 179 180 180 174 187 183 181 178 174
154 147 126 140 141 143 142 129 118 109 86 88 83 34 360 359 43 38 30 20 26 18 47 66 63 23 321 298 258 245 243 233 220 214 211 209 206 210 212 209 200 194 190
169 165 150 163 166 147 138 130 127 131 121 114 118 114 350 327 342 354 342 144 331 3 14 13 39 318 314 288 284 273 266 259 245 235 231 228 224 224 228 227 224 216 213
178 167 168 168 174 164 167 169 161 154 163 175 102 144 159 220 298 301 294 331 356 344 328 324 303 301 294 296 279 270 276 280 266 244 238 239 238 234 234 238 234 231 226
182 175 168 171 181 178 174 178 181 173 172 179 187 22 151 165 173 273 294 308 342 320 322 330 320 317 325 323 316 300 280 285 277 258 251 247 244 239 238 236 239 236 236
187 179 180 185 188 188 183 182 181 180 183 189 180 166 133 89 185 186 243 277 306 276 270 272 268 284 307 311 309 321 313 294 276 271 269 266 256 244 243 243 245 240 240
205 203 198 198 194 193 190 189 189 186 192 190 188 177 176 177 189 189 210 247 265 270 269 255 251 241 268 321 319 333 322 311 299 279 278 277 274 266 254 254 254 253 248
225 221 210 206 202 201 194 188 190 193 196 195 203 205 202 202 181 183 191 220 265 280 266 252 240 249 271 286 300 313 314 319 317 303 288 282 284 273 259 258 260 260 258
234 226 216 210 209 200 194 192 197 202 196 202 213 212 210 212 197 191 187 179 239 273 254 253 261 236 265 278 287 296 295 305 314 311 303 295 292 287 267 257 259 262 268
237 230 218 206 206 206 199 191 201 208 205 208 213 217 214 214 207 212 203 193 191 228 245 234 243 245 254 261 280 280 291 294 299 300 305 306 295 291 274 257 254 256 262
224 223 221 209 211 211 205 197 201 206 207 214 214 214 220 215 205 205 211 222 215 217 243 238 239 273 266 273 280 278 272 290 286 291 295 298 298 286 280 265 254 252 256
229 223 223 214 214 213 206 203 209 207 207 215 217 215 226 219 208 208 207 213 225 221 249 267 264 268 244 262 281 277 276 268 277 285 289 290 292 289 278 268 259 254 256
252 234 216 215 223 214 208 206 210 211 211 215 219 218 224 221 217 212 208 214 221 223 233 263 273 270 254 256 265 274 284 284 277 285 287 288 286 285 278 274 261 255 254
256 246 224 222 225 218 213 210 209 212 214 218 218 218 222 215 223 221 214 215 221 227 229 243 262 265 269 273 284 283 282 277 284 289 286 284 285 288 279 278 267 259 257
256 244 239 237 235 223 217 212 210 212 216 220 222 221 220 218 221 220 220 216 214 218 222 234 252 255 252 261 253 269 280 272 279 284 280 282 282 287 279 274 271 267 263
271 250 238 244 240 227 221 214 209 210 212 218 224 225 226 227 228 223 222 215 208 214 220 229 243 250 243 244 245 247 262 280 274 258 277 275 278 274 274 273 269 264 263
292 266 243 238 245 245 240 230 219 209 209 215 223 228 232 232 234 237 241 235 223 216 217 222 233 239 244 244 246 249 259 276 274 248 266 276 268 266 267 271 278 270 260
299 276 257 253 254 261 258 241 229 216 208 214 221 224 232 240 234 229 240 242 242 242 230 221 227 234 237 232 229 239 244 252 262 272 268 273 264 265 269 275 285 275 264
293 278 261 262 267 272 269 255 236 220 211 219 223 223 226 233 230 227 231 237 237 241 241 234 227 230 233 229 219 227 239 255 273 260 230 261 265 266 275 267 275 272 266
315 305 277 259 261 276 279 270 256 214 220 229 234 231 229 230 238 239 230 238 248 251 252 252 253 251 250 249 237 218 228 244 264 254 223 247 265 282 277 262 265 269 267
306 314 310 290 277 278 280 278 264 226 225 237 240 244 247 249 245 238 225 225 242 247 240 247 253 255 245 238 235 222 219 229 250 248 207 225 263 302 295 270 266 276 262